CAPE
0 0 0 0 0 0 0 0 0 0 0 0 0 0 0 0 0 0 0 0 0 0
0 0 0 0 0 0 0 0 0 0 0 0 0 0 0 0 0 0 0 0 0 0
0 0 0 0 0 0 0 0 0 0 0 0 0 0 0 0 0 0 0 0 0 0
0 0 0 0 0 0 0 0 0 0 0 0 0 0 0 0 0 0 0 0 0 0
0 0 0 0 0 0 0 0 0 0 0 0 0 0 0 0 0 0 0 0 0 0
0 0 0 0 0 0 0 0 0 0 0 0 0 0 0 0 0 0 0 0 0 0
0 0 0 0 0 0 0 0 0 0 0 0 0 0 0 0 0 0 0 0 0 0
0 0 0 0 0 0 0 0 0 0 0 0 0 0 0 0 0 0 0 0 0 0
0 0 0 0 0 0 0 0 0 0 0 0 0 0 0 0 0 0 0 0 0 0
0 0 0 0 0 0 0 0 0 0 0 0 0 0 1 3 0 0 0 0 0 0
0 0 0 0 0 0 0 0 0 0 0 0 0 0 0 3 0 0 0 0 0 0
0 0 0 0 0 0 0 0 0 0 0 0 0 0 1 2 0 0 0 0 0 0
0 0 0 0 0 0 0 0 0 0 0 0 0 0 5 6 0 0 0 0 0 1
0 0 0 0 0 0 0 0 0 0 0 0 0 0 5 11 4 0 0 0 0 0
CIN
0 0 0 0 0 0 0 0 0 0 0 0 0 0 0 0 0 0 0 0 0 0
0 0 0 0 0 0 0 0 0 0 0 0 0 0 0 0 0 0 0 0 0 0
0 0 0 0 0 0 0 0 0 0 0 0 0 0 0 0 0 0 0 0 0 0
0 0 0 0 0 0 0 0 0 0 0 0 0 0 0 0 0 0 0 0 0 0
0 0 0 0 0 0 0 0 0 0 0 0 0 0 0 0 0 0 0 0 0 0
0 0 0 0 0 0 0 0 0 0 0 0 0 0 0 0 0 0 0 0 0 0
0 0 0 0 0 0 0 0 0 0 0 0 0 0 0 0 0 0 0 0 0 0
0 0 0 0 0 0 0 0 0 0 0 0 0 0 0 0 0 0 0 0 0 0
0 0 0 0 0 0 0 0 0 0 0 0 0 0 0 0 0 0 0 0 0 0
0 0 0 0 0 0 0 0 0 0 0 0 0 0 0 0 0 0 0 0 0 0
0 0 0 0 0 0 0 0 0 0 0 0 0 0 0 0 0 0 0 0 0 0
0 0 0 0 0 0 0 0 0 0 0 0 0 0 0 -0 0 0 0 0 0 0
0 0 0 0 0 0 0 0 0 0 0 0 0 0 0 -0 0 0 0 0 0 0
0 0 0 0 0 0 0 0 0 0 0 0 0 0 0 0 -2 0 0 0 -0 0
Wind_Speed
9 6 6 6 6 5 4 4 5 6 6 6 6 5 5 4 4 5 5 6 5 3
9 10 7 7 6 4 5 5 5 6 6 6 5 5 5 4 4 4 3 4 4 3
9 10 10 8 8 7 5 5 6 6 6 5 5 5 5 4 3 4 2 3 4 3
8 9 9 8 7 6 6 6 6 5 6 5 5 5 4 3 4 4 2 2 2 1
7 8 9 8 8 6 5 5 5 5 5 5 4 4 5 3 4 3 1 1 1 2
10 8 8 7 7 7 6 5 4 4 4 4 4 4 4 3 3 2 2 2 3 3
8 9 7 7 6 6 5 5 5 4 4 4 4 4 4 3 2 1 2 4 4 4
7 6 10 7 7 6 6 4 5 4 3 3 3 2 3 2 2 3 4 4 4 4
7 8 8 7 5 5 5 5 4 3 3 2 2 7 9 7 3 3 3 3 5 5
7 7 7 7 5 4 4 3 4 3 3 3 3 9 10 11 5 5 5 5 5 6
8 7 8 7 6 4 3 4 3 4 3 3 4 11 12 12 4 4 6 6 6 6
8 8 8 7 6 4 4 4 3 3 4 4 5 11 12 11 2 4 5 5 6 6
8 8 6 5 5 3 3 4 4 4 4 9 5 12 13 12 3 5 6 6 8 16
6 5 4 4 2 3 3 3 1 2 3 4 5 6 15 16 7 5 6 7 6 6
Wind_Direction
132 132 130 129 132 132 131 134 121 105 101 97 94 89 90 90 96 90 92 87 75 75
131 129 131 124 120 119 119 128 121 116 114 112 106 103 99 98 92 88 86 94 108 107
128 128 129 127 128 131 128 117 120 120 118 117 113 111 103 102 102 95 82 99 92 89
124 124 121 123 124 125 127 133 134 131 128 125 130 130 122 121 127 115 90 82 121 120
120 126 130 137 138 145 147 149 148 147 143 145 147 154 142 140 119 134 165 243 160 195
137 138 141 143 144 148 156 146 147 144 142 151 163 156 162 153 170 192 196 234 260 254
147 146 138 136 145 146 138 144 153 156 159 168 185 186 186 177 199 225 247 254 241 246
124 137 140 140 140 133 138 147 152 156 175 186 189 187 196 185 211 242 265 274 270 244
135 147 138 126 133 130 125 123 111 125 139 183 234 236 239 209 187 214 225 255 263 256
144 152 144 144 145 144 142 115 147 147 156 203 225 250 251 256 186 206 217 237 253 260
142 147 137 140 148 137 132 163 181 200 203 203 242 253 260 262 237 210 219 228 234 237
139 141 149 161 162 167 165 182 185 179 203 217 243 263 269 271 251 240 241 246 245 243
126 132 139 151 174 183 169 189 186 206 206 232 230 260 265 261 220 236 249 250 248 261
106 114 134 140 134 123 120 111 99 231 254 234 239 252 268 268 255 226 236 244 251 250